Year,Month,Day,Hour,Minute,Value (Times are PST for temperature in C)
2009,12,17,00,00,5.40
2009,12,17,00,01,5.40
2009,12,17,00,02,5.40
2009,12,17,00,03,5.40
2009,12,17,00,04,5.50
2009,12,17,00,05,5.50
2009,12,17,00,06,5.50
2009,12,17,00,07,5.50
2009,12,17,00,08,5.50
2009,12,17,00,09,5.40
2009,12,17,00,10,5.40
2009,12,17,00,11,5.30
2009,12,17,00,12,5.30
2009,12,17,00,13,5.20
2009,12,17,00,14,5.20
2009,12,17,00,15,5.20
2009,12,17,00,16,5.30
2009,12,17,00,17,5.40
2009,12,17,00,18,5.40
2009,12,17,00,19,5.40
2009,12,17,00,20,5.40
2009,12,17,00,21,5.40
2009,12,17,00,22,5.40
2009,12,17,00,23,5.40
2009,12,17,00,24,5.40
2009,12,17,00,25,5.50
2009,12,17,00,26,5.50
2009,12,17,00,27,5.50
2009,12,17,00,28,5.50
2009,12,17,00,29,5.50
2009,12,17,00,30,5.40
2009,12,17,00,31,5.50
2009,12,17,00,32,5.50
2009,12,17,00,33,5.40
2009,12,17,00,34,5.40
2009,12,17,00,35,5.40
2009,12,17,00,36,5.30
2009,12,17,00,37,5.30
2009,12,17,00,38,5.20
2009,12,17,00,39,5.20
2009,12,17,00,40,5.20
2009,12,17,00,41,5.20
2009,12,17,00,42,5.20
2009,12,17,00,43,5.20
2009,12,17,00,44,5.20
2009,12,17,00,45,5.20
2009,12,17,00,46,5.20
2009,12,17,00,47,5.20
2009,12,17,00,48,5.10
2009,12,17,00,49,5.10
2009,12,17,00,50,5.10
2009,12,17,00,51,5.00
2009,12,17,00,52,5.00
2009,12,17,00,53,5.00
2009,12,17,00,54,4.90
2009,12,17,00,55,4.90
2009,12,17,00,56,4.90
2009,12,17,00,57,5.00
2009,12,17,00,58,5.00
2009,12,17,00,59,5.00
2009,12,17,01,00,4.90
2009,12,17,01,01,4.80
2009,12,17,01,02,4.90
2009,12,17,01,03,4.80
2009,12,17,01,04,4.80
2009,12,17,01,05,4.80
2009,12,17,01,06,4.80
2009,12,17,01,07,4.90
2009,12,17,01,08,4.90
2009,12,17,01,09,4.90
2009,12,17,01,10,5.00
2009,12,17,01,11,5.00
2009,12,17,01,12,5.00
2009,12,17,01,13,4.90
2009,12,17,01,14,4.90
2009,12,17,01,15,4.90
2009,12,17,01,16,4.90
2009,12,17,01,17,4.80
2009,12,17,01,18,4.80
2009,12,17,01,19,4.80
2009,12,17,01,20,4.90
2009,12,17,01,21,5.00
2009,12,17,01,22,5.10
2009,12,17,01,23,5.10
2009,12,17,01,24,5.10
2009,12,17,01,25,5.10
2009,12,17,01,26,5.20
2009,12,17,01,27,5.20
2009,12,17,01,28,5.20
2009,12,17,01,29,5.30
2009,12,17,01,30,5.30
2009,12,17,01,31,5.30
2009,12,17,01,32,5.30
2009,12,17,01,33,5.30
2009,12,17,01,34,5.20
2009,12,17,01,35,5.00
2009,12,17,01,36,4.90
2009,12,17,01,37,4.90
2009,12,17,01,38,4.90
2009,12,17,01,39,4.90
2009,12,17,01,40,4.90
2009,12,17,01,41,4.80
2009,12,17,01,42,4.80
2009,12,17,01,43,4.80
2009,12,17,01,44,4.80
2009,12,17,01,45,4.80
2009,12,17,01,46,4.80
2009,12,17,01,47,4.70
2009,12,17,01,48,4.70
2009,12,17,01,49,4.70
2009,12,17,01,50,4.70
2009,12,17,01,51,4.70
2009,12,17,01,52,4.60
2009,12,17,01,53,4.60
2009,12,17,01,54,4.60
2009,12,17,01,55,4.50
2009,12,17,01,56,4.60
2009,12,17,01,57,4.50
2009,12,17,01,58,4.50
2009,12,17,01,59,4.50
2009,12,17,02,00,4.50
2009,12,17,02,01,4.50
2009,12,17,02,02,4.50
2009,12,17,02,03,4.50
2009,12,17,02,04,4.50
2009,12,17,02,05,4.50
2009,12,17,02,06,4.50
2009,12,17,02,07,4.40
2009,12,17,02,08,4.40
2009,12,17,02,09,4.40
2009,12,17,02,10,4.40
2009,12,17,02,11,4.40
2009,12,17,02,12,4.40
2009,12,17,02,13,4.30
2009,12,17,02,14,4.30
2009,12,17,02,15,4.20
2009,12,17,02,16,4.10
2009,12,17,02,17,4.10
2009,12,17,02,18,4.20
2009,12,17,02,19,4.30
2009,12,17,02,20,4.30
2009,12,17,02,21,4.30
2009,12,17,02,22,4.30
2009,12,17,02,23,4.30
2009,12,17,02,24,4.40
2009,12,17,02,25,4.50
2009,12,17,02,26,4.50
2009,12,17,02,27,4.60
2009,12,17,02,28,4.60
2009,12,17,02,29,4.50
2009,12,17,02,30,4.50
2009,12,17,02,31,4.50
2009,12,17,02,32,4.40
2009,12,17,02,33,4.30
2009,12,17,02,34,4.20
2009,12,17,02,35,4.20
2009,12,17,02,36,4.20
2009,12,17,02,37,4.20
2009,12,17,02,38,4.20
2009,12,17,02,39,4.20
2009,12,17,02,40,4.10
2009,12,17,02,41,4.10
2009,12,17,02,42,4.10
2009,12,17,02,43,4.00
2009,12,17,02,44,3.90
2009,12,17,02,45,3.80
2009,12,17,02,46,3.90
2009,12,17,02,47,4.00
2009,12,17,02,48,4.10
2009,12,17,02,49,4.20
2009,12,17,02,50,4.30
2009,12,17,02,51,4.40
2009,12,17,02,52,4.40
2009,12,17,02,53,4.40
2009,12,17,02,54,4.40
2009,12,17,02,55,4.50
2009,12,17,02,56,4.50
2009,12,17,02,57,4.50
2009,12,17,02,58,4.40
2009,12,17,02,59,4.40
2009,12,17,03,00,4.20
2009,12,17,03,01,4.10
2009,12,17,03,02,4.10
2009,12,17,03,03,4.10
2009,12,17,03,04,4.20
2009,12,17,03,05,4.30
2009,12,17,03,06,4.40
2009,12,17,03,07,4.40
2009,12,17,03,08,4.50
2009,12,17,03,09,4.40
2009,12,17,03,10,4.30
2009,12,17,03,11,4.20
2009,12,17,03,12,4.10
2009,12,17,03,13,3.90
2009,12,17,03,14,3.90
2009,12,17,03,15,4.00
2009,12,17,03,16,4.00
2009,12,17,03,17,4.10
2009,12,17,03,18,4.10
2009,12,17,03,19,4.10
2009,12,17,03,20,4.20
2009,12,17,03,21,4.20
2009,12,17,03,22,4.30
2009,12,17,03,23,4.40
2009,12,17,03,24,4.40
2009,12,17,03,25,4.30
2009,12,17,03,26,4.10
2009,12,17,03,27,4.10
2009,12,17,03,28,4.10
2009,12,17,03,29,4.00
2009,12,17,03,30,3.90
2009,12,17,03,31,3.70
2009,12,17,03,32,3.60
2009,12,17,03,33,3.60
2009,12,17,03,34,3.50
2009,12,17,03,35,3.50
2009,12,17,03,36,3.50
2009,12,17,03,37,3.50
2009,12,17,03,38,3.50
2009,12,17,03,39,3.60
2009,12,17,03,40,3.70
2009,12,17,03,41,3.70
2009,12,17,03,42,3.80
2009,12,17,03,43,3.90
2009,12,17,03,44,3.90
2009,12,17,03,45,3.90
2009,12,17,03,46,3.90
2009,12,17,03,47,4.00
2009,12,17,03,48,4.00
2009,12,17,03,49,4.10
2009,12,17,03,50,4.00
2009,12,17,03,51,3.90
2009,12,17,03,52,3.80
2009,12,17,03,53,3.70
2009,12,17,03,54,3.70
2009,12,17,03,55,3.60
2009,12,17,03,56,3.70
2009,12,17,03,57,3.80
2009,12,17,03,58,3.80
2009,12,17,03,59,3.80
2009,12,17,04,00,3.80
2009,12,17,04,01,3.70
2009,12,17,04,02,3.60
2009,12,17,04,03,3.50
2009,12,17,04,04,3.40
2009,12,17,04,05,3.20
2009,12,17,04,06,3.20
2009,12,17,04,07,3.20
2009,12,17,04,08,3.10
2009,12,17,04,09,3.20
2009,12,17,04,10,3.30
2009,12,17,04,11,3.30
2009,12,17,04,12,3.30
2009,12,17,04,13,3.20
2009,12,17,04,14,3.20
2009,12,17,04,15,3.20
2009,12,17,04,16,3.20
2009,12,17,04,17,3.10
2009,12,17,04,18,3.10
2009,12,17,04,19,3.00
2009,12,17,04,20,2.90
2009,12,17,04,21,2.90
2009,12,17,04,22,2.90
2009,12,17,04,23,3.00
2009,12,17,04,24,3.10
2009,12,17,04,25,3.10
2009,12,17,04,26,3.10
2009,12,17,04,27,3.00
2009,12,17,04,28,3.00
2009,12,17,04,29,2.90
2009,12,17,04,30,2.90
2009,12,17,04,31,2.90
2009,12,17,04,32,3.00
2009,12,17,04,33,3.00
2009,12,17,04,34,3.00
2009,12,17,04,35,2.90
2009,12,17,04,36,2.90
2009,12,17,04,37,3.00
2009,12,17,04,38,2.90
2009,12,17,04,39,2.90
2009,12,17,04,40,3.00
2009,12,17,04,41,2.90
2009,12,17,04,42,2.90
2009,12,17,04,43,2.90
2009,12,17,04,44,2.80
2009,12,17,04,45,2.90
2009,12,17,04,46,3.00
2009,12,17,04,47,3.10
2009,12,17,04,48,3.00
2009,12,17,04,49,2.90
2009,12,17,04,50,2.90
2009,12,17,04,51,2.90
2009,12,17,04,52,3.00
2009,12,17,04,53,3.00
2009,12,17,04,54,3.00
2009,12,17,04,55,3.10
2009,12,17,04,56,3.10
2009,12,17,04,57,3.20
2009,12,17,04,58,3.20
2009,12,17,04,59,3.20
2009,12,17,05,00,3.20
2009,12,17,05,01,3.30
2009,12,17,05,02,3.20
2009,12,17,05,03,3.20
2009,12,17,05,04,3.20
2009,12,17,05,05,3.20
2009,12,17,05,06,3.20
2009,12,17,05,07,3.20
2009,12,17,05,08,3.20
2009,12,17,05,09,3.10
2009,12,17,05,10,3.10
2009,12,17,05,11,3.10
2009,12,17,05,12,3.30
2009,12,17,05,13,3.40
2009,12,17,05,14,3.40
2009,12,17,05,15,3.20
2009,12,17,05,16,3.20
2009,12,17,05,17,3.30
2009,12,17,05,18,3.30
2009,12,17,05,19,3.30
2009,12,17,05,20,3.30
2009,12,17,05,21,3.30
2009,12,17,05,22,3.40
2009,12,17,05,23,3.50
2009,12,17,05,24,3.60
2009,12,17,05,25,3.70
2009,12,17,05,26,3.70
2009,12,17,05,27,3.70
2009,12,17,05,28,3.60
2009,12,17,05,29,3.60
2009,12,17,05,30,3.70
2009,12,17,05,31,3.80
2009,12,17,05,32,3.80
2009,12,17,05,33,3.90
2009,12,17,05,34,3.90
2009,12,17,05,35,3.90
2009,12,17,05,36,3.90
2009,12,17,05,37,3.90
2009,12,17,05,38,3.80
2009,12,17,05,39,3.80
2009,12,17,05,40,3.90
2009,12,17,05,41,3.90
2009,12,17,05,42,4.00
2009,12,17,05,43,4.10
2009,12,17,05,44,4.10
2009,12,17,05,45,4.20
2009,12,17,05,46,4.20
2009,12,17,05,47,4.30
2009,12,17,05,48,4.10
2009,12,17,05,49,4.00
2009,12,17,05,50,4.00
2009,12,17,05,51,3.90
2009,12,17,05,52,3.80
2009,12,17,05,53,3.70
2009,12,17,05,54,3.80
2009,12,17,05,55,3.70
2009,12,17,05,56,3.60
2009,12,17,05,57,3.50
2009,12,17,05,58,3.60
2009,12,17,05,59,3.70
2009,12,17,06,00,3.70
2009,12,17,06,01,3.50
2009,12,17,06,02,3.30
2009,12,17,06,03,3.30
2009,12,17,06,04,3.40
2009,12,17,06,05,3.50
2009,12,17,06,06,3.60
2009,12,17,06,07,3.70
2009,12,17,06,08,3.80
2009,12,17,06,09,3.80
2009,12,17,06,10,3.70
2009,12,17,06,11,3.70
2009,12,17,06,12,3.80
2009,12,17,06,13,3.90
2009,12,17,06,14,3.90
2009,12,17,06,15,3.90
2009,12,17,06,16,4.00
2009,12,17,06,17,4.00
2009,12,17,06,18,4.00
2009,12,17,06,19,4.00
2009,12,17,06,20,3.90
2009,12,17,06,21,3.80
2009,12,17,06,22,3.80
2009,12,17,06,23,3.80
2009,12,17,06,24,3.80
2009,12,17,06,25,3.80
2009,12,17,06,26,3.90
2009,12,17,06,27,3.90
2009,12,17,06,28,4.00
2009,12,17,06,29,4.00
2009,12,17,06,30,3.90
2009,12,17,06,31,3.80
2009,12,17,06,32,3.70
2009,12,17,06,33,3.70
2009,12,17,06,34,3.60
2009,12,17,06,35,3.70
2009,12,17,06,36,3.70
2009,12,17,06,37,3.70
2009,12,17,06,38,3.70
2009,12,17,06,39,3.70
2009,12,17,06,40,3.70
2009,12,17,06,41,3.70
2009,12,17,06,42,3.80
2009,12,17,06,43,3.80
2009,12,17,06,44,3.90
2009,12,17,06,45,3.90
2009,12,17,06,46,3.90
2009,12,17,06,47,3.80
2009,12,17,06,48,3.70
2009,12,17,06,49,3.70
2009,12,17,06,50,3.70
2009,12,17,06,51,3.70
2009,12,17,06,52,3.70
2009,12,17,06,53,3.70
2009,12,17,06,54,3.70
2009,12,17,06,55,3.70
2009,12,17,06,56,3.70
2009,12,17,06,57,3.70
2009,12,17,06,58,3.70
2009,12,17,06,59,3.80
2009,12,17,07,00,3.80
2009,12,17,07,01,3.80
2009,12,17,07,02,3.90
2009,12,17,07,03,3.90
2009,12,17,07,04,3.80
2009,12,17,07,05,3.80
2009,12,17,07,06,3.90
2009,12,17,07,07,3.90
2009,12,17,07,08,4.00
2009,12,17,07,09,4.10
2009,12,17,07,10,4.10
2009,12,17,07,11,4.10
2009,12,17,07,12,4.10
2009,12,17,07,13,4.00
2009,12,17,07,14,3.90
2009,12,17,07,15,3.80
2009,12,17,07,16,3.80
2009,12,17,07,17,3.80
2009,12,17,07,18,3.70
2009,12,17,07,19,3.70
2009,12,17,07,20,3.70
2009,12,17,07,21,3.70
2009,12,17,07,22,3.70
2009,12,17,07,23,3.70
2009,12,17,07,24,3.70
2009,12,17,07,25,3.70
2009,12,17,07,26,3.60
2009,12,17,07,27,3.60
2009,12,17,07,28,3.60
2009,12,17,07,29,3.60
2009,12,17,07,30,3.50
2009,12,17,07,31,3.60
2009,12,17,07,32,3.60
2009,12,17,07,33,3.60
2009,12,17,07,34,3.70
2009,12,17,07,35,3.70
2009,12,17,07,36,3.70
2009,12,17,07,37,3.70
2009,12,17,07,38,3.70
2009,12,17,07,39,3.80
2009,12,17,07,40,3.70
2009,12,17,07,41,3.60
2009,12,17,07,42,3.60
2009,12,17,07,43,3.60
2009,12,17,07,44,3.60
2009,12,17,07,45,3.70
2009,12,17,07,46,3.70
2009,12,17,07,47,3.70
2009,12,17,07,48,3.70
2009,12,17,07,49,3.70
2009,12,17,07,50,3.70
2009,12,17,07,51,3.70
2009,12,17,07,52,3.80
2009,12,17,07,53,3.80
2009,12,17,07,54,3.80
2009,12,17,07,55,3.80
2009,12,17,07,56,3.80
2009,12,17,07,57,3.90
2009,12,17,07,58,4.10
2009,12,17,07,59,4.20
2009,12,17,08,00,4.20
2009,12,17,08,01,4.20
2009,12,17,08,02,4.10
2009,12,17,08,03,4.10
2009,12,17,08,04,4.20
2009,12,17,08,05,4.20
2009,12,17,08,06,4.30
2009,12,17,08,07,4.40
2009,12,17,08,08,4.30
2009,12,17,08,09,4.30
2009,12,17,08,10,4.30
2009,12,17,08,11,4.30
2009,12,17,08,12,4.30
2009,12,17,08,13,4.30
2009,12,17,08,14,4.30
2009,12,17,08,15,4.30
2009,12,17,08,16,4.30
2009,12,17,08,17,4.40
2009,12,17,08,18,4.40
2009,12,17,08,19,4.40
2009,12,17,08,20,4.30
2009,12,17,08,21,4.30
2009,12,17,08,22,4.30
2009,12,17,08,23,4.30
2009,12,17,08,24,4.20
2009,12,17,08,25,4.30
2009,12,17,08,26,4.30
2009,12,17,08,27,4.40
2009,12,17,08,28,4.40
2009,12,17,08,29,4.50
2009,12,17,08,30,4.50
2009,12,17,08,31,4.50
2009,12,17,08,32,4.50
2009,12,17,08,33,4.60
2009,12,17,08,34,4.70
2009,12,17,08,35,4.70
2009,12,17,08,36,4.80
2009,12,17,08,37,4.80
2009,12,17,08,38,4.80
2009,12,17,08,39,4.80
2009,12,17,08,40,4.80
2009,12,17,08,41,4.90
2009,12,17,08,42,4.90
2009,12,17,08,43,4.90
2009,12,17,08,44,4.90
2009,12,17,08,45,4.90
2009,12,17,08,46,4.90
2009,12,17,08,47,4.90
2009,12,17,08,48,4.80
2009,12,17,08,49,4.80
2009,12,17,08,50,4.90
2009,12,17,08,51,5.10
2009,12,17,08,52,5.20
2009,12,17,08,53,5.20
2009,12,17,08,54,5.20
2009,12,17,08,55,5.20
2009,12,17,08,56,5.10
2009,12,17,08,57,5.00
2009,12,17,08,58,4.90
2009,12,17,08,59,4.90
2009,12,17,09,00,4.90
2009,12,17,09,01,4.90
2009,12,17,09,02,4.90
2009,12,17,09,03,4.80
2009,12,17,09,04,4.80
2009,12,17,09,05,4.80
2009,12,17,09,06,4.80
2009,12,17,09,07,4.80
2009,12,17,09,08,4.80
2009,12,17,09,09,4.90
2009,12,17,09,10,5.00
2009,12,17,09,11,5.00
2009,12,17,09,12,5.00
2009,12,17,09,13,5.00
2009,12,17,09,14,4.90
2009,12,17,09,15,4.90
2009,12,17,09,16,4.90
2009,12,17,09,17,4.90
2009,12,17,09,18,4.90
2009,12,17,09,19,4.90
2009,12,17,09,20,4.90
2009,12,17,09,21,4.90
2009,12,17,09,22,4.80
2009,12,17,09,23,4.80
2009,12,17,09,24,4.80
2009,12,17,09,25,4.80
2009,12,17,09,26,4.80
2009,12,17,09,27,4.80
2009,12,17,09,28,4.80
2009,12,17,09,29,4.80
2009,12,17,09,30,4.90
2009,12,17,09,31,5.00
2009,12,17,09,32,5.00
2009,12,17,09,33,5.10
2009,12,17,09,34,5.10
2009,12,17,09,35,5.10
2009,12,17,09,36,5.20
2009,12,17,09,37,5.20
2009,12,17,09,38,5.20
2009,12,17,09,39,5.20
2009,12,17,09,40,5.20
2009,12,17,09,41,5.20
2009,12,17,09,42,5.10
2009,12,17,09,43,5.10
2009,12,17,09,44,5.20
2009,12,17,09,45,5.20
2009,12,17,09,46,5.20
2009,12,17,09,47,5.10
2009,12,17,09,48,5.10
2009,12,17,09,49,5.20
2009,12,17,09,50,5.20
2009,12,17,09,51,5.20
2009,12,17,09,52,5.20
2009,12,17,09,53,5.20
2009,12,17,09,54,5.30
2009,12,17,09,55,5.30
2009,12,17,09,56,5.30
2009,12,17,09,57,5.40
2009,12,17,09,58,5.50
2009,12,17,09,59,5.50
2009,12,17,10,00,5.70
2009,12,17,10,01,5.70
2009,12,17,10,02,5.80
2009,12,17,10,03,5.90
2009,12,17,10,04,5.90
2009,12,17,10,05,5.90
2009,12,17,10,06,5.90
2009,12,17,10,07,6.00
2009,12,17,10,08,6.00
2009,12,17,10,09,6.10
2009,12,17,10,10,6.20
2009,12,17,10,11,6.20
2009,12,17,10,12,6.30
2009,12,17,10,13,6.30
2009,12,17,10,14,6.40
2009,12,17,10,15,6.40
2009,12,17,10,16,6.50
2009,12,17,10,17,6.60
2009,12,17,10,18,6.60
2009,12,17,10,19,6.60
2009,12,17,10,20,6.60
2009,12,17,10,21,6.60
2009,12,17,10,22,6.60
2009,12,17,10,23,6.60
2009,12,17,10,24,6.60
2009,12,17,10,25,6.60
2009,12,17,10,26,6.60
2009,12,17,10,27,6.60
2009,12,17,10,28,6.50
2009,12,17,10,29,6.50
2009,12,17,10,30,6.50
2009,12,17,10,31,6.50
2009,12,17,10,32,6.60
2009,12,17,10,33,6.60
2009,12,17,10,34,6.60
2009,12,17,10,35,6.70
2009,12,17,10,36,6.70
2009,12,17,10,37,6.70
2009,12,17,10,38,6.70
2009,12,17,10,39,6.70
2009,12,17,10,40,6.70
2009,12,17,10,41,6.70
2009,12,17,10,42,6.70
2009,12,17,10,43,6.70
2009,12,17,10,44,6.80
2009,12,17,10,45,6.80
2009,12,17,10,46,6.80
2009,12,17,10,47,6.90
2009,12,17,10,48,7.00
2009,12,17,10,49,7.00
2009,12,17,10,50,7.10
2009,12,17,10,51,7.10
2009,12,17,10,52,7.20
2009,12,17,10,53,7.20
2009,12,17,10,54,7.20
2009,12,17,10,55,7.20
2009,12,17,10,56,7.30
2009,12,17,10,57,7.30
2009,12,17,10,58,7.30
2009,12,17,10,59,7.30
2009,12,17,11,00,7.30
2009,12,17,11,01,7.40
2009,12,17,11,02,7.40
2009,12,17,11,03,7.40
2009,12,17,11,04,7.40
2009,12,17,11,05,7.40
2009,12,17,11,06,7.40
2009,12,17,11,07,7.40
2009,12,17,11,08,7.40
2009,12,17,11,09,7.40
2009,12,17,11,10,7.40
2009,12,17,11,11,7.40
2009,12,17,11,12,7.40
2009,12,17,11,13,7.50
2009,12,17,11,14,7.40
2009,12,17,11,15,7.40
2009,12,17,11,16,7.50
2009,12,17,11,17,7.50
2009,12,17,11,18,7.50
2009,12,17,11,19,7.50
2009,12,17,11,20,7.50
2009,12,17,11,21,7.50
2009,12,17,11,22,7.50
2009,12,17,11,23,7.40
2009,12,17,11,24,7.40
2009,12,17,11,25,7.40
2009,12,17,11,26,7.40
2009,12,17,11,27,7.40
2009,12,17,11,28,7.40
2009,12,17,11,29,7.40
2009,12,17,11,30,7.40
2009,12,17,11,31,7.40
2009,12,17,11,32,7.50
2009,12,17,11,33,7.50
2009,12,17,11,34,7.50
2009,12,17,11,35,7.50
2009,12,17,11,36,7.60
2009,12,17,11,37,7.60
2009,12,17,11,38,7.60
2009,12,17,11,39,7.60
2009,12,17,11,40,7.70
2009,12,17,11,41,7.70
2009,12,17,11,42,7.70
2009,12,17,11,43,7.70
2009,12,17,11,44,7.70
2009,12,17,11,45,7.70
2009,12,17,11,46,7.70
2009,12,17,11,47,7.70
2009,12,17,11,48,7.70
2009,12,17,11,49,7.70
2009,12,17,11,50,7.70
2009,12,17,11,51,7.70
2009,12,17,11,52,7.70
2009,12,17,11,53,7.70
2009,12,17,11,54,7.70
2009,12,17,11,55,7.70
2009,12,17,11,56,7.70
2009,12,17,11,57,7.70
2009,12,17,11,58,7.70
2009,12,17,11,59,7.70
2009,12,17,12,00,7.70
2009,12,17,12,01,7.70
2009,12,17,12,02,7.60
2009,12,17,12,03,7.60
2009,12,17,12,04,7.60
2009,12,17,12,05,7.60
2009,12,17,12,06,7.60
2009,12,17,12,07,7.60
2009,12,17,12,08,7.60
2009,12,17,12,09,7.60
2009,12,17,12,10,7.60
2009,12,17,12,11,7.60
2009,12,17,12,12,7.70
2009,12,17,12,13,7.70
2009,12,17,12,14,7.70
2009,12,17,12,15,7.70
2009,12,17,12,16,7.70
2009,12,17,12,17,7.70
2009,12,17,12,18,7.70
2009,12,17,12,19,7.70
2009,12,17,12,20,7.70
2009,12,17,12,21,7.70
2009,12,17,12,22,7.70
2009,12,17,12,23,7.70
2009,12,17,12,24,7.70
2009,12,17,12,25,7.70
2009,12,17,12,26,7.70
2009,12,17,12,27,7.70
2009,12,17,12,28,7.70
2009,12,17,12,29,7.70
2009,12,17,12,30,7.70
2009,12,17,12,31,7.70
2009,12,17,12,32,7.70
2009,12,17,12,33,7.70
2009,12,17,12,34,7.70
2009,12,17,12,35,7.70
2009,12,17,12,36,7.70
2009,12,17,12,37,7.70
2009,12,17,12,38,7.70
2009,12,17,12,39,7.70
2009,12,17,12,40,7.80
2009,12,17,12,41,7.80
2009,12,17,12,42,7.80
2009,12,17,12,43,7.80
2009,12,17,12,44,7.80
2009,12,17,12,45,7.80
2009,12,17,12,46,7.80
2009,12,17,12,47,7.80
2009,12,17,12,48,7.80
2009,12,17,12,49,7.80
2009,12,17,12,50,7.80
2009,12,17,12,51,7.80
2009,12,17,12,52,7.80
2009,12,17,12,53,7.80
2009,12,17,12,54,7.80
2009,12,17,12,55,7.80
2009,12,17,12,56,7.80
2009,12,17,12,57,7.80
2009,12,17,12,58,7.80
2009,12,17,12,59,7.80
2009,12,17,13,00,7.80
2009,12,17,13,01,7.80
2009,12,17,13,02,7.80
2009,12,17,13,03,7.80
2009,12,17,13,04,7.80
2009,12,17,13,05,7.80
2009,12,17,13,06,7.80
2009,12,17,13,07,7.80
2009,12,17,13,08,7.90
2009,12,17,13,09,7.90
2009,12,17,13,10,7.90
2009,12,17,13,11,7.90
2009,12,17,13,12,7.90
2009,12,17,13,13,7.90
2009,12,17,13,14,7.90
2009,12,17,13,15,7.90
2009,12,17,13,16,7.90
2009,12,17,13,17,7.90
2009,12,17,13,18,7.90
2009,12,17,13,19,7.90
2009,12,17,13,20,7.90
2009,12,17,13,21,7.90
2009,12,17,13,22,7.90
2009,12,17,13,23,7.90
2009,12,17,13,24,7.90
2009,12,17,13,25,7.90
2009,12,17,13,26,7.80
2009,12,17,13,27,7.80
2009,12,17,13,28,7.80
2009,12,17,13,29,7.80
2009,12,17,13,30,7.80
2009,12,17,13,31,7.80
2009,12,17,13,32,7.80
2009,12,17,13,33,7.80
2009,12,17,13,34,7.80
2009,12,17,13,35,7.80
2009,12,17,13,36,7.80
2009,12,17,13,37,7.80
2009,12,17,13,38,7.90
2009,12,17,13,39,7.90
2009,12,17,13,40,7.90
2009,12,17,13,41,7.90
2009,12,17,13,42,7.90
2009,12,17,13,43,7.90
2009,12,17,13,44,7.90
2009,12,17,13,45,7.90
2009,12,17,13,46,7.90
2009,12,17,13,47,7.90
2009,12,17,13,48,7.90
2009,12,17,13,49,7.90
2009,12,17,13,50,7.90
2009,12,17,13,51,7.90
2009,12,17,13,52,7.90
2009,12,17,13,53,7.90
2009,12,17,13,54,7.90
2009,12,17,13,55,7.90
2009,12,17,13,56,7.90
2009,12,17,13,57,7.90
2009,12,17,13,58,7.90
2009,12,17,13,59,7.90
2009,12,17,14,00,7.90
2009,12,17,14,01,7.90
2009,12,17,14,02,7.90
2009,12,17,14,03,7.90
2009,12,17,14,04,7.90
2009,12,17,14,05,7.90
2009,12,17,14,06,7.90
2009,12,17,14,07,7.90
2009,12,17,14,08,7.90
2009,12,17,14,09,7.90
2009,12,17,14,10,7.90
2009,12,17,14,11,7.90
2009,12,17,14,12,7.90
2009,12,17,14,13,7.90
2009,12,17,14,14,7.90
2009,12,17,14,15,7.90
2009,12,17,14,16,7.90
2009,12,17,14,17,7.90
2009,12,17,14,18,7.90
2009,12,17,14,19,7.90
2009,12,17,14,20,7.90
2009,12,17,14,21,7.90
2009,12,17,14,22,7.90
2009,12,17,14,23,7.90
2009,12,17,14,24,7.90
2009,12,17,14,25,7.90
2009,12,17,14,26,7.90
2009,12,17,14,27,7.90
2009,12,17,14,28,7.90
2009,12,17,14,29,7.90
2009,12,17,14,30,7.90
2009,12,17,14,31,7.90
2009,12,17,14,32,7.90
2009,12,17,14,33,7.90
2009,12,17,14,34,7.90
2009,12,17,14,35,7.90
2009,12,17,14,36,7.90
2009,12,17,14,37,7.90
2009,12,17,14,38,7.90
2009,12,17,14,39,7.90
2009,12,17,14,40,7.90
2009,12,17,14,41,7.90
2009,12,17,14,42,7.90
2009,12,17,14,43,7.90
2009,12,17,14,44,7.90
2009,12,17,14,45,8.00
2009,12,17,14,46,7.90
2009,12,17,14,47,7.90
2009,12,17,14,48,7.90
2009,12,17,14,49,7.90
2009,12,17,14,50,7.90
2009,12,17,14,51,7.90
2009,12,17,14,52,7.90
2009,12,17,14,53,7.90
2009,12,17,14,54,7.90
2009,12,17,14,55,7.90
2009,12,17,14,56,7.90
2009,12,17,14,57,7.90
2009,12,17,14,58,7.90
2009,12,17,14,59,7.90
2009,12,17,15,00,7.90
2009,12,17,15,01,7.90
2009,12,17,15,02,7.90
2009,12,17,15,03,7.90
2009,12,17,15,04,7.90
2009,12,17,15,05,7.90
2009,12,17,15,06,7.90
2009,12,17,15,07,7.90
2009,12,17,15,08,7.90
2009,12,17,15,09,7.90
2009,12,17,15,10,7.90
2009,12,17,15,11,7.90
2009,12,17,15,12,7.80
2009,12,17,15,13,7.80
2009,12,17,15,14,7.80
2009,12,17,15,15,7.80
2009,12,17,15,16,7.80
2009,12,17,15,17,7.80
2009,12,17,15,18,7.80
2009,12,17,15,19,7.80
2009,12,17,15,20,7.80
2009,12,17,15,21,7.80
2009,12,17,15,22,7.80
2009,12,17,15,23,7.80
2009,12,17,15,24,7.80
2009,12,17,15,25,7.80
2009,12,17,15,26,7.80
2009,12,17,15,27,7.80
2009,12,17,15,28,7.80
2009,12,17,15,29,7.80
2009,12,17,15,30,7.80
2009,12,17,15,31,7.80
2009,12,17,15,32,7.80
2009,12,17,15,33,7.80
2009,12,17,15,34,7.80
2009,12,17,15,35,7.80
2009,12,17,15,36,7.80
2009,12,17,15,37,7.80
2009,12,17,15,38,7.80
2009,12,17,15,39,7.80
2009,12,17,15,40,7.80
2009,12,17,15,41,7.80
2009,12,17,15,42,7.80
2009,12,17,15,43,7.80
2009,12,17,15,44,7.80
2009,12,17,15,45,7.80
2009,12,17,15,46,7.80
2009,12,17,15,47,7.70
2009,12,17,15,48,7.70
2009,12,17,15,49,7.70
2009,12,17,15,50,7.70
2009,12,17,15,51,7.70
2009,12,17,15,52,7.70
2009,12,17,15,53,7.70
2009,12,17,15,54,7.70
2009,12,17,15,55,7.70
2009,12,17,15,56,7.80
2009,12,17,15,57,7.70
2009,12,17,15,58,7.80
2009,12,17,15,59,7.70
2009,12,17,16,00,7.70
2009,12,17,16,01,7.70
2009,12,17,16,02,7.70
2009,12,17,16,03,7.70
2009,12,17,16,04,7.70
2009,12,17,16,05,7.70
2009,12,17,16,06,7.70
2009,12,17,16,07,7.70
2009,12,17,16,08,7.70
2009,12,17,16,09,7.70
2009,12,17,16,10,7.70
2009,12,17,16,11,7.70
2009,12,17,16,12,7.70
2009,12,17,16,13,7.70
2009,12,17,16,14,7.70
2009,12,17,16,15,7.80
2009,12,17,16,16,7.80
2009,12,17,16,17,7.80
2009,12,17,16,18,7.80
2009,12,17,16,19,7.80
2009,12,17,16,20,7.80
2009,12,17,16,21,7.80
2009,12,17,16,22,7.80
2009,12,17,16,23,7.80
2009,12,17,16,24,7.80
2009,12,17,16,25,7.80
2009,12,17,16,26,7.80
2009,12,17,16,27,7.80
2009,12,17,16,28,7.80
2009,12,17,16,29,7.80
2009,12,17,16,30,7.80
2009,12,17,16,31,7.80
2009,12,17,16,32,7.90
2009,12,17,16,33,7.90
2009,12,17,16,34,7.90
2009,12,17,16,35,7.90
2009,12,17,16,36,7.90
2009,12,17,16,37,7.90
2009,12,17,16,38,7.90
2009,12,17,16,39,7.90
2009,12,17,16,40,7.90
2009,12,17,16,41,7.90
2009,12,17,16,42,7.90
2009,12,17,16,43,7.90
2009,12,17,16,44,7.90
2009,12,17,16,45,7.90
2009,12,17,16,46,7.90
2009,12,17,16,47,7.90
2009,12,17,16,48,7.90
2009,12,17,16,49,7.90
2009,12,17,16,50,7.90
2009,12,17,16,51,7.90
2009,12,17,16,52,8.00
2009,12,17,16,53,8.00
2009,12,17,16,54,8.00
2009,12,17,16,55,8.00
2009,12,17,16,56,8.00
2009,12,17,16,57,8.00
2009,12,17,16,58,8.10
2009,12,17,16,59,8.10
2009,12,17,17,00,8.10
2009,12,17,17,01,8.10
2009,12,17,17,02,8.10
2009,12,17,17,03,8.10
2009,12,17,17,04,8.10
2009,12,17,17,05,8.10
2009,12,17,17,06,8.10
2009,12,17,17,07,8.10
2009,12,17,17,08,8.10
2009,12,17,17,09,8.20
2009,12,17,17,10,8.20
2009,12,17,17,11,8.20
2009,12,17,17,12,8.20
2009,12,17,17,13,8.20
2009,12,17,17,14,8.20
2009,12,17,17,15,8.30
2009,12,17,17,16,8.30
2009,12,17,17,17,8.30
2009,12,17,17,18,8.30
2009,12,17,17,19,8.30
2009,12,17,17,20,8.30
2009,12,17,17,21,8.40
2009,12,17,17,22,8.40
2009,12,17,17,23,8.40
2009,12,17,17,24,8.40
2009,12,17,17,25,8.40
2009,12,17,17,26,8.40
2009,12,17,17,27,8.40
2009,12,17,17,28,8.40
2009,12,17,17,29,8.40
2009,12,17,17,30,8.40
2009,12,17,17,31,8.40
2009,12,17,17,32,8.40
2009,12,17,17,33,8.40
2009,12,17,17,34,8.50
2009,12,17,17,35,8.50
2009,12,17,17,36,8.50
2009,12,17,17,37,8.60
2009,12,17,17,38,8.60
2009,12,17,17,39,8.60
2009,12,17,17,40,8.50
2009,12,17,17,41,8.50
2009,12,17,17,42,8.50
2009,12,17,17,43,8.50
2009,12,17,17,44,8.50
2009,12,17,17,45,8.50
2009,12,17,17,46,8.50
2009,12,17,17,47,8.50
2009,12,17,17,48,8.50
2009,12,17,17,49,8.50
2009,12,17,17,50,8.50
2009,12,17,17,51,8.50
2009,12,17,17,52,8.50
2009,12,17,17,53,8.50
2009,12,17,17,54,8.50
2009,12,17,17,55,8.50
2009,12,17,17,56,8.50
2009,12,17,17,57,8.50
2009,12,17,17,58,8.50
2009,12,17,17,59,8.50
2009,12,17,18,00,8.50
2009,12,17,18,01,8.50
2009,12,17,18,02,8.50
2009,12,17,18,03,8.50
2009,12,17,18,04,8.60
2009,12,17,18,05,8.60
2009,12,17,18,06,8.60